Aérodrome :
LOGIN :

S'inscrire | Disclaimer

   EN    FR    IT 

 










Légende :    VFR   VFR Marginal   IFR   IFR Intensif   IFR Très Intensif
Visi : 
Plafond : 
>= 8 km
>= 3000ft
5 à 8 km
1000 à 3000 ft
1500m à 5 km
500 à 1000 ft
800 à 1500m
200 à 500 ft
< 800m
< 200 ft
Symboles :   Orages  Brouillard  Fortes neiges  Fortes précipitations  Vent > 20 kt
SIGMETs :   Divers  Orages  Givrage  Turbulence  Onde Orograph.  Cendres Volcan.







- Altitude de l'aérodrome : 1234 ft
- Code IATA : LUX


ELLX - Luxembourg Findel

DERNIER METAR :
  • 192120Z 34006KT 9999 FEW029 18/16 Q1025 NOSIG

METARs EXPIRÉS :
  • 192050Z 32005KT 280V340 9999 BKN029 18/16 Q1025 NOSIG
  • 192020Z 30004KT 9999 BKN028 19/16 Q1025 NOSIG
  • 191950Z 29005KT 9999 BKN028 19/16 Q1025 NOSIG
  • 191920Z 30005KT 9999 BKN028 19/16 Q1025 NOSIG
  • 191850Z 30005KT 9999 BKN029 19/16 Q1025 NOSIG

TAF TAF ELLX
Valide du 19 à 18h jusqu'au 21 à 00h UTC


191700Z 1918/2024 31005KT 9999 FEW030 BKN035
BECMG 1923/2002 VRB03KT 4500 BR
BECMG 2005/2007 9999 BKN030
ATIS : +352 4798 27300
Météo : +352 4798 27010 / 27050
Pas de NOTAMs connus pour ce terrain.



MET'MAP, la Météo Aéronautique d'un coup d'oeil ! - Copyright ORBIFLY Décembre 2007 - Disclaimer

ORBIFLY MET'MAP TEAM :

Programmation & Développement : Alexandra Zaïnal
Conception & Développement : Baudouin d'Aumeries
Co-Programmation & Développement : Marc-Olivier Méhu
Soutien technique & logistique : Manuel Goepfert

Contact : metmap@orbifly.com




SOURCES & CREDITS :

   NOAA